Simultaneous Nadir Overpasses (SNOs) Predictions

Prediction of SNOs between GOES-16 and NOAA-19 Satellite Orbit:

Table of predicted SNOs for the next 14.0 days since TLE Epoch: 2/8/2019
Index Date Time (GOES-16) GOES-16 Lat,Lon NOAA-19 Lat,Lon Distance(km) Time Diff (sec)
1 02/08/2019 21:42:06 -0.01, -75.18 0.00, -76.28 122.10 0
2 02/09/2019 21:29:06 -0.01, -75.19 0.40, -73.39 205.16 80
3 02/12/2019 09:52:53 0.01, -75.21 0.74, -78.39 363.23 80
4 02/13/2019 09:41:17 0.01, -75.21 0.06, -75.56 39.46 80
5 02/14/2019 09:27:01 0.01, -75.22 -0.56, -72.73 284.57 80
6 02/16/2019 21:48:18 -0.00, -75.23 -0.61, -77.76 289.75 80
7 02/17/2019 21:39:22 -0.00, -75.24 0.09, -74.94 34.60 80
8 02/18/2019 21:27:46 -0.00, -75.25 0.73, -72.11 358.98 80
9 02/21/2019 09:48:54 -0.00, -75.29 0.43, -77.12 208.31 80
10 02/22/2019 09:34:39 -0.00, -75.31 -0.26, -74.29 116.73 80




NCC Satellite Simultaneous Nadir Overpasses (SNOs) Prediction Service
